Content
SEND FEEDBACK

Daily
Averages
Monthly
Summary
United States of America

STAYTON, OREGON


Home > North America > United States > Oregon
Elevation: 553 feet     Latitude: 44 48N     Longitude: 122 46W

WEATHER
 
SELECT A DAY
Number of Records: 200,880;   Date Range: 1/1/95 - 8/30/14
 
SHARE

PRINT THIS DATA

[ ← Previous Day ]
WEATHER ALMANAC - FEBRUARY 16, 2013
[ Next Day → ]
[ °C ]   °F
Weather ElementAverageHighLow
Temperature43.1 °F51.1 °F (1:56 pm)37.9 °F (9:56 pm)
Dewpoint40.4 °F46 °F (12:56 pm)35.1 °F (9:56 pm)
Humidity90.7 %100 % (12:07 am)66 % (4:56 pm)
Barometer30.26 in30.30 in (10:56 pm)30.23 in (12:07 am)
Wind Speed5.5 mph11.5 mph (2:27 pm)
Weather ElementAverage
Visibility8.5 mi
Wind DirectionSSE (171.1 °)

Weather ElementTotal
Precipitation0.01 in
Heating Degree Days20.5 (Base 65)
Averaged from 36 records on February 16, 2013
WEATHER CONDITIONS BREAKOUT
WIND DIRECTION BREAKOUT
WEATHER BY HOUR - FEBRUARY 16, 2013
[ °C ]   °F
Local TimeTemperatureDewpointHumidityBarometerVisibilityWind DirectionWind SpeedGust SpeedPrecipitationEventsConditions
12:07 AM39.2 °F39.2 °F100 %30.23 in3.0 miSSE (160°)4.6 mphMostly Cloudy
12:34 AM41.0 °F41.0 °F100 %30.23 in9.0 miSouth (180°)10.4 mphScattered Clouds
12:56 AM41.0 °F39.9 °F96 %30.24 in10.0 miSouth (170°)9.2 mphClear
1:56 AM39.9 °F39.0 °F97 %30.24 in10.0 miSSE (160°)4.6 mphClear
2:35 AM39.2 °F39.2 °F100 %30.24 in9.0 miSSW (200°)3.5 mphScattered Clouds
2:44 AM39.2 °F39.2 °F100 %30.24 in9.0 miCalmMostly Cloudy
3:16 AM41.0 °F41.0 °F100 %30.24 in8.0 miSE (140°)3.5 mphOvercast
3:56 AM41.0 °F41.0 °F100 %30.23 in4.0 miSE (130°)3.5 mphOvercast
4:44 AM41.0 °F41.0 °F100 %30.24 in2.5 miCalmOvercast
4:56 AM41.0 °F41.0 °F100 %30.25 in2.0 miCalmOvercast
5:05 AM41.0 °F41.0 °F100 %30.24 in3.0 miSSE (150°)3.5 mphOvercast
5:20 AM41.0 °F41.0 °F100 %30.24 in4.0 miSSE (150°)6.9 mphOvercast
5:56 AM41.0 °F41.0 °F100 %30.26 in8.0 miSE (130°)3.5 mphOvercast
6:47 AM41.0 °F41.0 °F100 %30.27 in9.0 miSSE (150°)5.8 mphOvercast
6:56 AM41.0 °F41.0 °F100 %30.27 in10.0 miSSE (150°)6.9 mphOvercast
7:56 AM41.0 °F39.9 °F96 %30.28 in4.0 miSE (140°)10.4 mphOvercast
8:18 AM41.0 °F39.2 °F93 %30.27 in10.0 miSSE (150°)9.2 mphOvercast
8:40 AM42.8 °F42.8 °F100 %30.28 in10.0 miSSE (150°)6.9 mphOvercast
8:56 AM42.1 °F42.1 °F100 %30.29 in10.0 miCalmOvercast
9:56 AM46.0 °F44.1 °F93 %30.29 in10.0 miSouth (180°)5.8 mphOvercast
10:56 AM48.0 °F43.0 °F83 %30.29 in10.0 miSouth (190°)6.9 mphOvercast
11:56 AM48.0 °F43.0 °F83 %30.29 in10.0 miSouth (190°)4.6 mphOvercast
12:56 PM48.9 °F46.0 °F90 %30.27 in10.0 miSouth (190°)6.9 mph0.01 inOvercast
1:56 PM51.1 °F44.1 °F77 %30.25 in10.0 miSouth (190°)5.8 mphMostly Cloudy
2:27 PM48.2 °F41.0 °F76 %30.25 in10.0 miWNW (290°)11.5 mph0.00 inRainLight Rain
2:37 PM48.2 °F42.8 °F82 %30.25 in10.0 miWNW (290°)6.9 mph0.00 inRainLight Rain
2:56 PM48.9 °F41.0 °F74 %30.25 in10.0 miWNW (290°)9.2 mph0.00 inRainLight Rain
3:56 PM50.0 °F39.9 °F68 %30.25 in10.0 miWest (270°)6.9 mph0.00 inMostly Cloudy
4:56 PM48.9 °F37.9 °F66 %30.26 in10.0 miWNW (290°)10.4 mphClear
5:56 PM46.0 °F39.0 °F76 %30.26 in10.0 miWNW (290°)9.2 mphPartly Cloudy
6:56 PM44.1 °F37.9 °F79 %30.27 in10.0 miNW (310°)8.1 mphClear
7:56 PM44.1 °F39.0 °F82 %30.28 in10.0 miWNW (300°)6.9 mphClear
8:56 PM42.1 °F37.9 °F85 %30.29 in10.0 miNNW (330°)3.5 mphPartly Cloudy
9:56 PM37.9 °F35.1 °F89 %30.29 in10.0 miWSW (250°)4.6 mphClear
10:56 PM39.0 °F35.1 °F86 %30.30 in10.0 miCalmMostly Cloudy
11:56 PM37.9 °F36.0 °F93 %30.29 in10.0 miCalmOvercast
Hourly data recorded from KSLE, located miles away from Stayton, Oregon







STORIES FROM OUR PARTNERS